Brisbane, Australia

1:32 PM AEST on July 25, 2017 (GMT +1000)
Brisbane International

Weather History for YBBN - October, 2013

Change the Weather History Date:

Monday, October 7, 2013

  Actual Average Record
Temperature  
Mean Temperature 71 °F -  
Max Temperature 84 °F 79 °F 91 °F (2001)
Min Temperature 58 °F 61 °F 52 °F (2016)
Cooling Degree Days 6    
Growing Degree Days 21 (Base 50)    
Moisture  
Dew Point 61 °F    
Average Humidity 68    
Maximum Humidity 94    
Minimum Humidity 33    
Precipitation  
Precipitation 0.00 in 0.14 in - ()
Sea Level Pressure  
Sea Level Pressure 29.77 in    
Wind  
Wind Speed 7 mph ()    
Max Wind Speed 18 mph    
Max Gust Speed 32 mph    
Visibility 9.4 miles    
Events      
Averages and records for this station are not official NWS values.
T = Trace of Precipitation, MM = Missing Value Source: Averaged Metar Reports

Daily Weather History Graph

Daily Weather History Graph

Search for Another Location

Airport or City:

Trip Planner

Search our weather history database for the weather conditions in past years. The results will help you decide how hot, cold, wet, or windy it might be!

Date:

Astronomy

Oct. 07, 2013 Rise Set
Actual Time 5:20 AM AEST 5:50 PM AEST
Civil Twilight 4:57 AM AEST 6:14 PM AEST
Nautical Twilight 4:29 AM AEST 6:41 PM AEST
Astronomical Twilight 4:01 AM AEST 7:09 PM AEST
Moon 6:34 AM AEST (10/7) 8:04 PM AEST (10/7)
Length of Visible Light 13h 17m
Length of Day
12h 30m
Waxing Crescent, 5% of the Moon is Illuminated
Oct 7
Waxing Crescent
Oct 12
First Quarter
Oct 19
Full
Oct 27
Last Quarter
Nov 3
New

Hourly Weather History & Observations

Time (AEST) Temp. Heat Index Dew Point Humidity Pressure Visibility Wind Dir Wind Speed Gust Speed Precip Events Conditions
12:00 AM 65 °F - 62 °F 85% 29.81 in 19 mi West 8.1 mph - -   Partly Cloudy
12:00 AM 66.2 °F - 60.8 °F 83% 29.80 in - West 8.1 mph - N/A   Clear
12:30 AM 64.4 °F - 60.8 °F 88% 29.80 in - SSW 5.8 mph - N/A   Clear
1:00 AM 64 °F - 60 °F 81% 29.81 in - North 5.8 mph - -  
1:00 AM 64.4 °F - 59.0 °F 83% 29.80 in - North 5.8 mph - N/A   Clear
1:30 AM 62.6 °F - 59.0 °F 88% 29.80 in - WSW 4.6 mph - N/A   Clear
2:00 AM 60.8 °F - 59.0 °F 94% 29.77 in - Calm Calm - N/A   Clear
2:30 AM 62.6 °F - 59.0 °F 88% 29.77 in - Calm Calm - N/A   Clear
3:00 AM 60 °F - 58 °F 90% 29.79 in 19 mi Calm Calm - -   Partly Cloudy
3:00 AM 60.8 °F - 57.2 °F 88% 29.77 in - Calm Calm - N/A   Clear
3:30 AM 60.8 °F - 57.2 °F 88% 29.77 in - West 3.5 mph - N/A   Clear
4:00 AM 60 °F - 58 °F 91% 29.78 in - Calm Calm - -  
4:00 AM 60.8 °F - 59.0 °F 94% 29.77 in - Calm Calm - N/A   Clear
4:30 AM 59.0 °F - 57.2 °F 94% 29.77 in - Calm Calm - N/A   Clear
5:00 AM 59.0 °F - 57.2 °F 94% 29.77 in - SSW 5.8 mph - N/A   Clear
5:30 AM 59.0 °F - 57.2 °F 94% 29.77 in - WSW 3.5 mph - N/A   Clear
6:00 AM 60 °F - 58 °F 90% 29.81 in 12 mi Calm Calm - -   Smoke
6:00 AM 59.0 °F - 57.2 °F 94% 29.80 in - Calm Calm - N/A   Clear
6:30 AM 64.4 °F - 60.8 °F 88% 29.80 in - SSW 3.5 mph - N/A   Clear
7:00 AM 69 °F - 60 °F 67% 29.82 in - SSE 2.3 mph - -  
7:00 AM 69.8 °F - 60.8 °F 73% 29.80 in - SSE 2.3 mph - N/A   Clear
7:30 AM 71.6 °F - 57.2 °F 60% 29.80 in - Calm Calm - N/A   Clear
8:00 AM 75.2 °F - 55.4 °F 50% 29.80 in - North 5.8 mph - N/A   Clear
8:30 AM 77.0 °F - 55.4 °F 47% 29.80 in - NW 3.5 mph - N/A   Clear
9:00 AM 79 °F - 56 °F 34% 29.82 in 11 mi NNW 4.6 mph - -   Haze
9:00 AM 78.8 °F - 55.4 °F 44% 29.80 in - NNW 4.6 mph - N/A   Clear
9:30 AM 80.6 °F 81.1 °F 59.0 °F 48% 29.80 in - ENE 6.9 mph - N/A   Clear
10:00 AM 82 °F - 58 °F 33% 29.80 in - NE 6.9 mph - -  
10:00 AM 82.4 °F 82.0 °F 57.2 °F 42% 29.80 in - NE 6.9 mph - N/A   Clear
10:30 AM 82.4 °F 83.4 °F 62.6 °F 51% 29.77 in - NNE 9.2 mph - N/A   Clear
11:00 AM 82.4 °F 82.9 °F 60.8 °F 48% 29.77 in - NNE 9.2 mph - N/A   Clear
11:30 AM 82.4 °F 82.9 °F 60.8 °F 48% 29.74 in - NNE 12.7 mph - N/A   Clear
12:00 PM 83 °F - 60 °F 36% 29.74 in 16 mi NNE 12.7 mph - -   Haze
12:00 PM 82.4 °F 82.9 °F 60.8 °F 48% 29.74 in - NNE 12.7 mph - N/A   Clear
12:30 PM 82.4 °F 82.9 °F 60.8 °F 48% 29.71 in 6.2 mi NNE 16.1 mph - N/A   Partly Cloudy
1:00 PM 83 °F - 63 °F 40% 29.71 in - NNE 15.0 mph - -  
1:00 PM 82.4 °F 83.4 °F 62.6 °F 51% 29.68 in - NNE 15.0 mph - N/A   Clear
1:30 PM 82.4 °F 83.9 °F 64.4 °F 54% 29.68 in - NNE 16.1 mph - N/A   Clear
2:00 PM 84.2 °F 85.6 °F 64.4 °F 51% 29.68 in - NNE 16.1 mph - N/A   Clear
2:30 PM 82.4 °F 83.9 °F 64.4 °F 54% 29.65 in - NNE 17.3 mph - N/A   Clear
3:00 PM 83 °F - 65 °F 46% 29.66 in 19 mi NNE 16.1 mph - -   Partly Cloudy
3:00 PM 82.4 °F 84.6 °F 66.2 °F 58% 29.65 in - NNE 16.1 mph - N/A   Clear
3:30 PM 78.8 °F - 64.4 °F 61% 29.65 in - NNE 17.3 mph - N/A   Clear
4:00 PM 79 °F - 67 °F 58% 29.65 in - NNE 15.0 mph - -  
4:00 PM 78.8 °F - 66.2 °F 65% 29.65 in - NNE 15.0 mph - N/A   Clear
4:30 PM 78.8 °F - 66.2 °F 65% 29.65 in - NNE 13.8 mph - N/A   Clear
5:00 PM 77.0 °F - 64.4 °F 65% 29.68 in - ESE 16.1 mph - N/A   Clear
5:08 PM 75.2 °F - 64.4 °F 69% 29.68 in 6.2 mi ESE 15.0 mph - N/A   Mostly Cloudy
5:30 PM 75.2 °F - 64.4 °F 69% 29.71 in 6.2 mi SE 13.8 mph - N/A   Mostly Cloudy
5:49 PM 73.4 °F - 64.4 °F 73% 29.71 in 6.2 mi SE 17.3 mph 29.9 mph N/A   Mostly Cloudy
6:00 PM 74 °F - 64 °F 63% 29.75 in 8 mi SE 16.1 mph - -   Haze
6:00 PM 73.4 °F - 64.4 °F 73% 29.74 in 6.2 mi SE 16.1 mph 31.1 mph N/A   Mostly Cloudy
6:30 PM 73.4 °F - 64.4 °F 73% 29.77 in - SE 16.1 mph 29.9 mph N/A   Clear
6:39 PM 73.4 °F - 62.6 °F 69% 29.77 in - SE 18.4 mph 32.2 mph N/A   Clear
7:00 PM 73 °F - 62 °F 61% 29.79 in - SE 18.4 mph - -  
7:00 PM 73.4 °F - 62.6 °F 69% 29.77 in - SE 18.4 mph - N/A   Clear
7:02 PM 73.4 °F - 62.6 °F 69% 29.77 in - SE 17.3 mph 31.1 mph N/A   Clear
7:30 PM 71.6 °F - 62.6 °F 73% 29.80 in 6.2 mi SE 16.1 mph 32.2 mph N/A   Mostly Cloudy
8:00 PM 71.6 °F - 62.6 °F 73% 29.80 in - SE 17.3 mph 31.1 mph N/A   Clear
8:33 PM 71.6 °F - 60.8 °F 69% 29.80 in - SE 17.3 mph 28.8 mph N/A   Clear
9:00 PM 72 °F - 62 °F 62% 29.84 in 9 mi SE 15.0 mph - -   Haze
9:00 PM 71.6 °F - 60.8 °F 69% 29.83 in 6.2 mi SE 15.0 mph - N/A   Mostly Cloudy
9:30 PM 71.6 °F - 62.6 °F 73% 29.83 in 6.2 mi SSE 10.4 mph - N/A   Scattered Clouds
10:00 PM 71 °F - 62 °F 67% 29.86 in - SSE 10.4 mph - -  
10:00 PM 71.6 °F - 62.6 °F 73% 29.86 in 6.2 mi SSE 10.4 mph - N/A   Scattered Clouds
10:30 PM 69.8 °F - 62.6 °F 78% 29.86 in 6.2 mi SSE 8.1 mph - N/A   Scattered Clouds
11:00 PM 69.8 °F - 62.6 °F 78% 29.86 in 6.2 mi South 5.8 mph - N/A   Partly Cloudy
11:30 PM 68.0 °F - 62.6 °F 83% 29.86 in 6.2 mi SSE 4.6 mph - N/A   Partly Cloudy